Wind_Gust
14 12 12 10 8 8 10 6 6 6 6 6 7 5 5 5 5 5 5 5 6 6 5 5 6 4 6 4 6 7 7 7 8 12 11 10 13 9 2 6 7 10 7 5 6 13 15 16 6 6 3 4 4 4 6 9 11 12 12 10 11 10 10
12 12 11 11 11 9 9 6 8 6 7 5 5 6 5 5 5 6 6 6 6 5 5 4 3 5 6 6 7 7 8 7 5 5 12 12 10 10 7 5 9 10 8 7 7 5 15 16 5 5 5 5 7 6 9 10 10 10 11 11 11 10 10
12 11 12 13 11 9 10 8 8 9 7 9 8 6 7 6 6 7 6 6 8 7 5 6 5 5 5 6 8 8 7 6 4 7 10 10 9 9 7 9 10 9 10 10 5 9 9 5 19 14 9 12 12 6 9 11 11 10 10 11 10 10 10
13 14 14 11 10 9 12 9 9 9 8 9 8 6 6 7 8 8 8 7 5 6 8 8 8 8 6 7 8 8 8 9 8 7 5 6 9 10 7 9 12 17 19 18 14 10 10 11 13 11 8 8 15 15 6 11 12 9 11 10 12 10 10
14 15 16 14 12 12 12 11 8 10 8 8 7 7 6 7 9 9 7 7 7 6 6 7 6 4 4 4 7 8 9 7 7 9 7 8 7 9 9 9 8 6 6 13 14 10 15 17 19 16 13 13 10 9 9 7 5 8 9 10 9 11 9
12 13 13 11 9 13 12 11 10 10 9 9 7 8 4 6 7 8 8 9 7 6 7 7 7 5 3 4 4 6 8 9 9 10 11 10 11 12 11 9 9 8 8 8 12 13 10 12 15 17 8 7 17 15 10 9 9 5 4 7 9 8 9
12 12 11 12 9 10 11 12 12 12 11 9 6 5 4 5 6 5 6 6 5 6 6 6 6 6 6 8 7 6 6 6 7 7 7 5 5 4 5 9 7 8 8 9 12 14 14 15 13 16 14 9 9 15 9 6 8 10 4 4 3 6 7
10 11 10 10 10 9 8 11 9 10 12 9 9 5 5 8 6 6 6 7 6 6 6 7 8 6 5 5 4 4 5 5 6 6 4 6 6 4 4 5 6 8 8 8 12 12 13 15 17 17 17 17 9 6 7 6 4 4 9 3 3 2 5
8 8 8 7 7 8 8 10 10 10 10 10 7 8 6 8 7 7 6 5 4 6 7 7 7 7 6 7 5 4 4 4 7 5 4 5 5 5 5 4 6 6 5 8 8 11 12 10 11 10 16 20 21 11 6 8 5 4 3 5 2 2 5
9 9 10 7 7 6 9 10 12 10 9 10 9 8 9 6 7 7 6 6 6 6 6 6 7 6 6 6 6 5 5 4 5 3 4 5 3 7 6 7 8 8 7 5 5 6 7 6 9 9 7 17 16 20 12 8 7 9 7 4 7 6 6
9 7 7 8 8 11 10 11 11 10 9 8 10 8 9 8 7 8 8 6 5 6 7 6 7 7 7 7 5 5 3 4 7 5 5 8 7 5 5 5 5 8 6 6 8 6 7 10 9 10 9 4 15 21 15 15 11 7 8 3 4 8 5
7 8 8 9 9 12 11 10 10 10 8 7 10 9 9 8 7 7 7 4 6 6 6 7 6 7 7 7 5 7 4 8 10 8 5 8 5 8 7 7 5 7 6 7 6 6 6 9 11 12 11 8 5 15 17 15 14 8 8 8 4 4 10
8 10 10 12 11 12 10 10 10 8 8 7 8 8 8 7 7 7 5 5 5 5 6 6 7 6 7 7 7 8 5 7 8 8 6 5 7 8 9 8 6 8 8 10 8 7 5 4 9 11 11 10 6 10 12 12 15 13 9 10 9 7 9
9 11 10 11 12 11 10 9 8 8 7 7 8 8 7 7 6 6 5 5 5 6 6 5 4 6 6 6 5 7 5 8 9 6 8 7 6 8 8 7 6 6 6 12 8 7 9 9 9 10 11 12 10 10 14 11 14 9 4 3 7 11 7
10 9 12 11 13 12 11 10 9 7 8 6 7 8 8 6 6 6 6 4 3 5 5 4 3 6 6 6 4 4 6 7 7 6 7 7 6 7 7 8 7 6 6 11 10 10 11 10 12 12 12 14 13 10 10 12 7 10 9 3 4 3 8
11 10 11 11 12 12 11 10 9 10 9 7 5 8 8 8 8 7 6 5 3 4 4 4 4 5 6 7 6 4 4 5 6 7 8 8 8 7 8 8 7 7 8 11 8 8 8 9 9 13 11 12 12 9 5 10 12 7 11 8 6 8 7
24 15 10 10 11 10 12 10 8 10 9 7 8 5 7 9 7 7 8 6 6 4 3 4 6 6 7 6 6 5 3 4 5 6 8 8 8 9 9 8 7 7 9 12 9 9 7 7 10 10 9 7 11 10 7 6 8 11 7 12 7 12 11
20 15 17 9 9 9 9 11 9 10 9 8 7 7 6 6 8 8 9 8 7 5 5 6 7 6 5 6 8 6 6 6 7 7 7 7 7 7 7 8 7 7 8 12 7 9 8 8 9 11 10 10 10 10 8 9 8 9 12 12 12 8 4
9 15 17 11 7 8 8 9 9 8 10 9 7 8 10 6 10 9 9 9 8 7 7 7 7 6 6 6 8 8 8 7 7 7 6 6 5 5 6 5 4 5 7 10 7 6 7 8 8 10 10 10 10 10 9 6 8 10 12 13 12 10 3
11 11 12 12 15 12 6 7 8 8 8 7 8 7 8 9 8 11 10 9 9 10 8 6 6 5 5 6 7 8 7 7 7 7 7 7 6 5 6 5 4 5 7 7 8 8 8 7 9 8 10 10 9 10 9 8 8 10 11 11 7 7 8
5 8 7 9 9 8 12 11 8 6 5 6 7 9 9 8 9 8 11 10 10 10 9 7 5 5 5 5 6 6 6 7 7 7 6 8 8 8 7 7 7 7 9 9 10 8 10 11 8 8 6 8 9 10 10 8 8 9 9 8 11 10 6
10 11 9 6 8 7 7 11 11 5 4 5 7 7 6 6 7 6 6 8 10 8 10 12 10 9 7 5 5 7 7 7 8 9 8 9 8 9 8 9 9 8 10 11 11 10 9 9 12 10 5 7 8 10 7 8 9 10 9 10 5 3 7
10 9 14 14 9 9 13 11 7 6 3 1 1 2 5 3 5 6 7 6 7 7 9 9 12 15 11 12 8 8 6 6 7 8 9 9 7 6 9 7 7 9 11 11 10 10 9 7 5 8 12 11 10 9 9 9 9 10 10 10 10 9 7
11 10 14 11 8 7 11 16 13 7 4 5 4 3 2 3 3 5 6 7 9 10 7 6 8 14 16 17 13 10 10 9 6 6 6 8 9 7 6 5 3 5 9 9 11 13 13 12 10 8 6 6 7 13 12 8 8 9 11 9 7 8 10
7 5 4 4 7 8 9 7 11 13 8 4 5 5 6 4 5 4 5 4 7 9 8 6 7 11 13 14 12 14 12 12 10 9 9 9 10 9 7 6 6 8 10 12 11 10 10 12 12 10 8 8 7 4 4 12 11 7 8 10 8 9 12
6 4 5 2 2 2 3 9 14 9 7 6 3 6 3 4 3 2 4 4 4 4 4 8 8 9 9 8 11 10 10 11 12 11 10 12 11 11 8 10 11 9 10 10 11 11 12 9 7 9 9 8 7 7 6 5 5 11 13 13 13 8 9
11 10 7 5 4 4 4 4 4 8 13 5 5 6 2 5 5 3 3 4 5 4 5 7 10 10 10 8 8 8 8 9 9 9 12 14 12 12 14 14 13 12 8 9 9 10 9 10 10 9 6 4 4 5 6 7 9 8 7 13 15 14 6
10 10 10 9 10 11 11 11 9 8 12 11 7 8 11 8 6 6 5 5 5 7 9 8 9 10 10 11 9 5 5 4 8 11 11 12 15 15 15 16 15 17 14 12 13 13 13 13 11 10 8 6 5 4 4 4 3 4 7 7 10 12 12
16 15 12 12 14 13 11 10 12 11 11 10 9 7 6 3 4 6 8 6 7 9 11 11 10 10 9 9 9 7 6 6 7 10 11 11 11 7 9 16 17 15 15 14 14 17 15 15 14 13 11 8 6 5 5 4 7 7 5 11 13 15 14
17 17 16 17 16 15 15 14 12 12 12 12 11 11 9 8 8 7 6 6 8 11 11 13 12 12 11 11 7 8 7 8 8 9 12 11 8 10 16 11 15 17 13 12 12 15 15 13 12 13 12 10 8 7 5 5 10 10 10 14 14 15 15
17 17 17 17 16 15 14 11 13 13 12 11 12 10 8 8 8 7 6 9 12 12 14 14 14 14 15 13 12 11 10 10 8 10 10 11 9 15 18 17 19 17 20 23 15 17 16 17 16 16 14 14 12 10 6 5 10 12 13 11 11 11 12
14 14 15 15 15 16 15 14 12 10 11 11 11 9 7 8 8 5 6 10 9 12 14 14 14 15 17 14 14 10 10 10 10 11 12 14 12 12 13 14 20 19 18 19 18 18 20 18 14 16 18 16 16 14 16 15 16 15 12 9 5 8 6
14 14 15 14 15 15 15 17 18 16 15 13 14 13 11 10 10 12 9 8 8 10 13 16 16 15 16 16 15 13 9 10 13 14 13 14 15 13 14 15 15 18 18 16 16 19 21 21 20 17 16 18 18 18 14 14 14 17 14 12 11 6 7
11 11 11 11 11 12 13 14 14 15 16 17 16 17 17 16 15 14 12 9 9 10 12 15 19 20 19 17 15 13 12 15 14 14 13 13 14 16 16 17 16 14 17 17 17 20 23 23 18 20 20 21 23 18 17 13 13 10 14 11 10 8 10
10 10 9 9 9 8 8 8 9 10 12 12 13 14 14 15 15 16 16 15 10 11 12 15 17 19 21 21 15 17 14 16 16 12 11 13 13 14 17 17 17 16 17 20 19 18 21 23 22 18 21 16 14 22 26 17 13 11 11 11 10 10 10
12 11 12 11 10 10 9 9 9 9 9 9 9 9 10 12 13 15 16 15 14 13 13 15 16 19 21 23 21 16 18 14 8 12 14 15 16 18 14 13 13 10 10 8 12 20 19 16 11 11 14 17 19 21 17 16 14 13 12 11 12 13 11
11 10 12 12 11 11 12 12 11 11 10 9 10 11 12 12 12 12 13 15 16 16 14 14 14 18 21 22 20 14 12 12 9 10 11 14 13 12 12 13 12 12 14 16 18 18 18 17 16 18 21 21 22 17 16 15 13 14 12 12 13 13 12
Wind_Speed
8 7 7 5 4 4 5 4 4 4 4 4 5 3 3 3 3 3 3 3 4 4 3 3 3 3 4 3 4 4 4 4 5 7 6 5 7 3 0 3 3 4 5 3 3 6 6 7 2 2 2 3 3 2 4 6 6 6 6 6 6 6 5
7 7 6 6 6 5 5 3 4 4 4 3 3 4 3 3 3 3 3 3 3 3 3 3 2 2 3 4 4 4 5 4 3 3 6 6 5 5 4 3 5 4 3 4 4 3 5 7 2 2 1 3 5 4 5 5 5 5 5 5 5 5 4
6 6 6 6 5 4 5 4 4 5 5 6 5 4 5 4 3 3 2 3 4 3 2 3 3 3 3 3 5 5 4 4 3 4 5 5 4 4 4 5 4 3 4 3 3 4 4 3 8 6 3 5 5 2 5 6 6 5 5 5 5 5 4
8 8 8 6 5 4 6 4 5 4 4 6 5 4 4 4 4 4 3 4 3 3 3 4 4 5 4 4 4 3 5 6 5 4 3 4 4 4 3 5 7 9 9 6 7 4 4 5 6 5 4 3 7 8 3 5 6 5 4 4 6 4 4
9 8 9 8 6 6 6 5 3 5 4 5 4 4 4 4 5 4 4 4 4 4 4 3 3 2 2 3 5 4 4 4 4 5 5 5 5 5 4 4 4 2 3 6 6 6 8 8 10 8 6 6 5 3 4 4 3 3 4 5 4 6 5
7 8 7 7 5 6 5 5 4 5 5 5 4 5 4 4 4 5 4 5 4 3 4 4 3 2 2 2 3 4 4 5 5 6 6 6 7 7 6 3 4 2 4 4 6 6 5 6 8 8 4 4 8 6 4 4 2 2 2 2 4 4 5
5 6 6 7 5 6 6 6 5 6 6 5 4 4 3 4 3 3 4 4 4 4 4 4 4 3 3 3 2 3 4 3 3 4 5 4 3 2 3 5 3 2 2 5 5 6 7 8 7 9 7 3 4 7 3 1 3 4 1 1 1 2 3
4 5 6 6 6 5 5 5 4 5 5 3 5 3 3 5 4 3 4 5 4 4 4 4 4 4 3 3 2 3 2 2 3 3 3 3 4 3 3 3 4 5 3 4 6 6 6 7 8 8 8 9 4 3 3 2 1 2 4 1 2 1 2
3 4 5 4 4 5 5 6 5 4 5 4 4 4 4 5 4 4 4 4 3 4 4 5 4 4 4 4 3 3 3 1 3 2 3 3 3 4 4 3 4 4 3 3 4 6 7 6 6 6 8 9 10 4 2 3 1 1 2 2 0 2 3
5 6 6 5 4 4 6 5 6 5 4 5 4 3 5 4 4 5 4 4 4 4 4 4 4 4 4 4 3 3 3 2 2 2 2 3 3 5 4 4 5 5 5 3 3 4 3 3 4 4 3 9 8 9 4 3 3 3 4 2 3 3 4
4 5 5 5 5 6 5 6 5 6 4 4 4 3 4 4 4 5 5 4 3 4 4 4 4 4 4 4 4 3 2 2 3 3 3 3 3 3 3 3 3 5 4 4 4 3 3 4 5 5 4 1 6 11 6 7 4 2 4 2 1 2 3
4 5 5 5 5 7 7 6 5 5 4 4 5 4 4 4 4 4 4 4 4 4 4 4 4 4 5 5 4 4 3 4 5 4 2 5 3 5 5 4 3 4 4 4 3 3 3 4 5 6 5 5 4 6 9 7 5 3 3 4 2 2 5
5 6 6 7 6 7 6 6 6 5 4 3 4 4 4 4 4 4 4 4 4 4 4 4 4 4 4 4 4 4 3 5 5 4 4 3 4 5 6 5 4 5 5 6 5 4 4 3 6 6 6 6 3 2 7 6 7 6 4 4 4 4 5
5 6 6 7 8 7 6 6 5 5 4 4 4 4 4 4 4 4 4 4 4 4 4 4 3 4 4 4 3 4 3 5 5 4 4 4 3 5 5 5 4 4 4 7 5 5 4 4 4 6 6 7 5 4 7 4 5 4 1 0 3 4 4
6 6 7 6 8 7 7 6 6 5 5 4 4 4 4 3 3 3 4 3 3 4 4 3 2 4 4 4 3 2 4 4 4 4 4 4 4 4 4 5 4 4 4 7 6 7 7 6 6 6 6 7 7 5 5 5 3 5 4 0 1 0 3
3 6 7 6 7 7 6 6 5 6 5 5 4 4 4 4 3 3 3 3 3 3 3 3 3 3 4 4 4 2 3 4 4 4 5 5 4 4 5 5 5 5 4 6 5 5 5 6 5 8 7 7 7 6 4 5 6 3 6 4 3 4 4
12 8 3 6 6 5 6 5 4 6 6 5 5 3 4 4 3 3 3 2 2 3 2 3 3 3 4 4 4 4 2 3 3 4 4 4 4 4 5 5 4 5 6 7 5 6 4 5 6 6 6 5 7 6 4 4 5 6 3 6 4 6 6
6 3 11 3 5 5 5 5 4 5 5 5 4 4 3 2 4 3 4 4 3 2 3 3 3 3 3 4 4 4 3 3 4 4 4 4 4 4 4 5 4 4 5 7 5 6 5 5 5 6 6 6 6 6 5 6 5 5 7 7 6 4 2
6 9 5 1 3 0 4 5 4 4 5 5 4 5 6 4 5 5 4 4 4 3 2 3 4 4 4 4 4 4 4 4 4 4 4 4 4 4 4 4 3 4 5 6 4 4 4 5 4 4 5 4 5 4 5 4 4 6 7 7 7 5 2
3 4 3 1 5 4 3 1 4 4 4 4 5 5 5 5 5 6 5 4 4 4 4 4 3 2 3 4 4 5 4 4 4 4 4 4 4 4 4 3 3 3 4 5 5 5 5 5 5 5 6 6 5 5 5 4 4 6 6 6 4 4 4
4 3 2 3 4 1 1 5 3 2 3 4 4 5 5 5 6 5 6 5 5 5 4 4 3 3 2 4 4 4 4 4 5 4 4 4 4 4 4 4 4 4 5 5 6 5 6 7 5 5 4 4 5 6 6 5 5 6 6 5 6 6 3
4 4 4 4 5 4 3 3 5 4 2 3 3 4 4 4 5 4 4 5 5 4 5 5 4 4 4 3 3 4 4 4 5 5 4 4 4 4 4 4 4 4 4 7 9 8 7 7 7 6 3 4 5 6 4 4 5 6 5 5 2 0 3
4 6 8 8 5 4 3 5 4 2 1 0 0 1 3 2 3 4 4 4 4 4 5 4 7 11 9 6 4 4 3 3 4 5 5 5 5 4 4 4 3 6 8 8 8 7 7 6 4 6 8 7 6 6 6 5 6 6 6 6 6 5 5
5 4 6 2 1 3 1 1 5 4 3 2 2 1 1 2 2 3 4 4 6 6 4 4 8 12 13 12 7 5 5 4 3 4 4 5 6 5 4 4 2 5 7 8 8 11 10 9 8 7 5 6 6 8 7 5 5 6 6 5 4 4 6
3 2 2 1 1 2 3 2 2 6 4 2 3 3 4 2 2 3 3 2 4 6 5 6 6 10 12 12 11 8 6 6 5 5 5 5 5 4 4 4 4 4 6 7 7 6 7 10 9 7 6 6 5 2 2 6 6 4 5 6 4 5 6
4 2 2 1 1 1 2 3 6 5 3 3 3 3 2 2 2 1 2 2 2 2 3 6 7 8 9 8 10 8 7 7 7 7 6 7 6 6 5 5 5 5 5 8 7 7 7 6 6 8 8 7 7 6 3 2 3 6 7 6 7 5 5
7 5 3 3 2 2 3 2 3 2 2 1 1 3 1 2 2 1 1 2 3 2 3 5 6 8 9 8 7 7 5 6 6 6 7 8 7 7 7 8 7 7 5 6 6 6 6 6 6 5 4 4 3 4 6 6 7 6 5 7 9 8 3
7 7 6 6 6 7 6 7 4 3 3 4 5 5 3 2 3 3 4 4 4 4 5 6 7 7 7 9 8 5 3 3 5 6 7 7 8 8 9 9 9 10 8 8 8 9 8 8 7 6 5 4 3 2 3 3 2 1 3 4 6 7 7
6 5 6 6 7 7 7 6 6 7 5 3 0 0 2 1 3 3 4 4 4 6 6 9 9 8 8 7 6 3 3 4 5 5 6 7 6 2 2 6 8 9 9 8 11 14 11 8 8 7 5 4 3 3 2 2 4 4 2 5 6 8 7
8 8 7 7 8 8 8 8 7 7 6 6 5 7 6 4 4 4 4 4 5 6 6 9 10 10 10 9 6 5 4 4 5 5 7 6 5 4 6 5 2 6 6 4 8 12 12 10 6 7 7 6 4 4 2 2 7 9 4 10 11 13 13
11 10 10 10 9 7 6 5 7 6 7 7 7 7 5 6 5 4 4 5 5 6 7 10 12 12 10 11 10 6 6 6 5 5 5 5 4 7 11 13 12 10 11 14 14 12 13 12 8 9 9 8 7 6 3 3 5 7 11 9 8 9 10
9 9 10 10 9 9 8 7 5 6 6 6 6 6 5 5 5 4 3 5 7 7 8 10 12 12 13 10 9 6 6 5 6 6 6 7 6 7 8 10 16 14 12 14 16 15 16 13 8 10 10 10 9 8 9 8 9 8 7 5 2 4 4
8 9 9 9 9 9 8 9 10 9 8 6 7 7 6 6 6 7 4 3 4 5 7 8 10 13 13 13 12 8 5 5 7 8 8 8 7 7 8 8 10 15 16 15 12 15 16 17 13 10 9 10 10 11 8 7 8 10 9 8 6 3 4
7 7 7 6 6 7 7 8 8 9 9 9 9 9 10 9 8 8 7 6 5 5 5 7 10 15 15 14 12 11 7 8 8 8 7 7 7 8 8 9 9 12 15 14 12 15 16 17 13 10 11 12 13 11 12 7 7 9 8 7 6 5 6
5 4 4 4 5 5 5 5 6 6 7 7 8 9 9 9 9 9 9 8 6 6 7 9 8 14 17 17 13 13 8 9 10 7 6 6 7 7 9 10 9 11 14 15 15 12 13 16 16 9 12 11 12 18 15 10 7 6 6 6 5 5 6
6 5 6 5 4 4 4 4 4 5 5 5 5 6 7 7 8 9 9 8 8 8 7 8 11 10 15 18 18 12 15 11 7 7 8 8 9 9 8 8 8 9 10 9 7 12 15 15 10 5 10 13 16 17 13 9 8 7 7 6 6 6 6
6 6 7 7 6 6 6 5 5 5 5 5 5 5 6 6 6 7 8 8 9 9 8 8 11 14 13 16 16 11 10 11 8 6 6 8 7 7 7 8 8 9 10 10 13 15 14 14 11 15 17 16 17 14 9 8 7 8 7 7 7 7 6
Wind_Direction
159 166 160 156 149 142 118 121 99 96 108 137 151 166 167 149 148 149 147 163 169 165 162 162 169 161 160 161 156 168 153 167 175 156 173 179 165 198 91 107 96 114 132 84 120 148 132 127 96 7 34 42 54 35 76 94 101 100 96 83 87 82 76
153 147 143 140 138 132 114 102 92 83 82 77 102 112 106 137 154 162 175 193 176 174 164 140 142 154 173 155 143 150 165 185 191 163 153 178 161 166 123 82 105 124 110 98 111 88 128 121 67 130 134 25 56 46 81 93 96 95 102 105 104 107 101
136 130 131 137 137 132 120 118 108 96 86 75 66 71 98 98 98 110 137 171 179 157 146 163 163 172 189 160 171 175 167 170 193 168 168 160 160 165 155 152 128 115 94 84 73 97 56 46 148 165 162 141 116 48 106 110 114 112 107 108 105 105 104
140 137 133 136 135 121 126 129 117 116 99 104 95 77 87 94 87 85 89 98 117 133 131 147 167 171 163 154 158 159 165 167 180 180 140 144 150 158 151 156 158 160 166 162 166 160 137 125 108 129 139 139 132 125 131 124 122 119 119 121 119 113 115
144 145 147 153 152 143 142 139 140 107 96 96 99 90 68 83 92 83 79 79 90 116 137 148 157 150 147 137 134 142 166 171 161 158 150 149 156 161 162 168 168 127 120 145 159 150 140 149 143 147 138 116 92 85 117 82 62 107 139 139 139 135 134
147 146 148 142 148 142 142 137 136 124 117 98 102 98 100 103 106 92 77 83 86 115 143 138 145 133 106 116 133 139 156 169 175 163 162 174 166 163 177 189 153 146 147 145 134 141 130 127 139 135 134 125 134 134 151 146 129 70 51 107 135 137 140
148 145 146 141 152 142 147 150 152 147 140 143 129 123 137 105 85 113 111 94 94 108 117 116 125 139 135 136 142 138 149 169 162 171 165 147 156 138 122 156 154 139 153 148 148 137 146 138 147 143 138 81 111 136 148 69 159 101 33 38 67 120 131
154 143 145 145 147 137 144 142 141 139 136 151 128 131 108 109 121 111 95 79 77 95 108 107 104 100 102 99 108 120 114 127 144 159 127 131 135 130 128 144 134 119 217 165 151 161 149 159 152 156 139 128 94 91 119 94 71 54 161 126 130 168 169
163 131 129 132 142 139 141 139 146 145 139 131 121 119 120 122 124 98 74 69 84 100 108 109 107 104 106 108 104 105 99 88 133 146 145 143 149 142 135 124 130 150 184 167 150 154 178 165 151 155 146 141 141 140 89 102 54 68 149 127 162 186 190
159 148 153 155 136 124 128 136 140 143 131 127 131 126 122 114 116 110 94 81 81 103 102 105 111 112 108 104 108 96 89 57 94 126 141 155 170 146 142 155 154 154 166 169 163 173 150 120 138 136 151 160 153 133 144 126 191 149 232 170 145 214 190
153 140 138 131 125 111 108 120 123 124 136 137 128 129 122 124 119 113 108 96 92 101 117 117 114 112 103 95 103 91 95 104 88 67 89 123 117 107 120 121 137 145 158 163 182 173 142 159 149 154 147 183 166 149 156 145 192 210 179 223 170 162 188
144 128 119 123 121 115 121 125 126 129 119 119 117 121 119 122 118 113 115 103 98 114 122 123 115 110 113 106 100 106 108 108 97 85 73 105 102 106 111 105 105 112 137 144 132 127 147 161 170 162 154 152 257 160 144 138 130 242 145 183 232 195 169
143 131 134 127 118 121 127 124 125 121 136 123 124 130 132 137 132 121 116 111 107 120 126 133 127 118 108 117 126 110 113 101 99 107 93 86 113 107 97 84 78 105 119 118 114 109 117 154 169 164 152 153 150 147 129 137 150 182 223 172 189 183 179
133 131 126 121 119 123 123 126 129 136 118 126 132 132 140 148 144 134 123 130 134 137 130 136 125 118 107 113 114 121 113 99 106 110 106 76 72 92 95 94 80 81 102 103 108 113 123 129 126 143 145 134 139 160 129 120 127 135 55 257 153 180 196
131 128 121 121 124 131 135 139 140 131 135 155 143 151 159 169 147 135 144 142 127 131 142 143 142 117 117 118 122 112 112 102 107 113 109 102 77 89 107 101 92 99 116 123 137 137 143 136 131 129 140 142 149 161 156 114 150 139 165 46 124 55 171
109 126 122 129 133 139 143 141 145 142 148 160 165 161 173 170 170 163 155 166 138 151 151 163 170 129 133 140 144 150 114 121 132 134 126 134 134 128 111 117 128 130 129 113 122 129 126 120 124 129 140 140 142 156 162 147 130 123 146 188 183 161 192
2 350 96 133 131 141 145 148 152 151 159 159 171 194 179 168 166 170 170 183 188 158 152 164 167 146 153 152 156 163 153 148 151 156 148 146 146 138 132 120 144 134 123 118 129 116 104 112 120 123 122 129 137 151 161 162 150 135 164 154 222 184 195
129 55 350 351 123 138 148 148 157 166 157 168 180 172 200 172 160 175 180 194 203 172 180 172 151 153 164 165 168 161 171 165 164 167 167 160 160 141 137 138 153 129 119 119 126 124 132 129 140 132 135 145 149 158 157 159 154 141 145 170 196 224 178
69 60 72 334 2 66 155 154 163 180 170 172 178 184 181 182 176 190 191 196 190 191 188 176 163 163 163 168 174 166 166 163 169 171 173 163 157 147 137 142 138 118 115 124 135 129 128 134 129 132 137 149 151 151 156 161 147 149 160 178 177 206 231
57 107 149 191 101 21 321 158 155 181 191 165 176 183 187 175 193 180 191 185 185 184 186 189 161 165 153 163 169 160 151 154 169 176 177 173 172 154 143 142 140 132 126 133 140 149 141 141 149 157 161 157 153 146 155 165 158 161 170 174 209 203 209
122 69 60 61 58 55 12 343 306 211 151 166 181 183 182 185 186 185 180 187 190 178 174 184 169 177 184 176 172 161 154 153 169 189 189 194 181 173 172 169 168 169 158 163 158 167 151 154 151 158 177 147 153 146 157 157 150 159 170 180 187 203 213
122 124 99 53 55 46 14 323 304 291 199 186 179 182 182 175 155 179 185 188 183 179 178 186 185 175 196 207 196 182 172 169 168 181 197 206 206 194 193 194 188 179 179 171 175 166 166 153 150 154 179 153 154 147 147 152 148 138 148 151 167 28 134
58 53 53 39 23 33 33 14 324 350 347 72 9 275 176 152 146 152 160 182 192 185 194 197 196 187 183 186 203 212 188 187 178 180 187 202 216 218 208 208 208 185 174 164 166 162 148 144 154 161 168 164 159 150 155 155 154 151 145 148 169 156 138
49 59 83 111 224 141 157 105 310 331 350 36 66 44 93 123 94 125 157 164 178 194 198 207 218 199 193 188 185 197 199 203 193 186 193 190 202 210 219 218 204 177 163 159 156 154 150 150 147 148 162 185 177 161 154 156 167 158 156 159 166 141 143
68 34 72 120 317 1 54 36 341 315 334 2 70 72 69 69 82 114 130 154 175 186 186 181 193 208 208 204 193 190 198 201 195 198 198 205 206 199 198 191 203 192 183 175 162 149 146 149 145 137 122 122 142 182 199 163 159 161 152 142 156 175 150
25 7 359 27 67 56 107 195 212 240 301 336 355 78 100 70 78 75 119 144 188 195 180 180 170 182 197 212 219 204 199 200 198 203 198 202 205 197 187 194 205 211 210 190 167 165 159 152 140 137 129 111 89 99 115 196 205 174 158 150 155 173 170
37 36 46 53 73 117 129 202 250 294 359 8 32 339 346 131 150 154 198 209 234 254 249 227 201 180 174 179 194 201 208 202 202 198 202 199 199 195 189 193 200 204 205 190 188 173 168 158 155 145 139 125 116 78 72 81 95 116 151 157 156 161 195
44 31 25 25 30 35 29 24 45 110 186 262 287 266 233 220 212 201 203 218 234 251 247 226 213 217 207 191 187 183 191 182 187 199 207 207 200 194 196 201 200 198 192 190 198 186 173 175 165 161 151 147 125 80 63 43 25 52 128 139 148 144 144
49 45 37 29 33 29 20 20 19 5 24 6 346 170 317 280 246 218 224 218 220 251 258 241 229 222 207 222 208 207 179 173 183 204 209 207 209 192 244 222 207 205 196 196 206 195 189 174 170 153 156 142 111 77 54 4 305 280 235 152 144 139 140
34 32 33 37 32 23 17 8 3 5 7 3 7 2 349 322 304 292 267 236 226 249 263 260 240 228 217 190 189 217 204 193 189 204 218 217 193 173 213 212 309 335 342 301 229 197 202 169 149 160 169 155 140 126 72 21 40 49 92 125 122 127 138
21 16 18 18 15 12 16 13 12 3 9 354 352 345 329 330 317 295 271 267 251 255 264 264 259 253 230 191 197 204 207 200 209 214 226 231 200 204 218 215 209 192 201 224 230 203 200 186 171 174 168 159 155 147 149 142 94 65 40 38 84 117 133
23 18 13 6 5 6 6 3 356 5 4 357 348 334 335 325 316 294 259 255 256 251 262 272 272 261 258 210 195 217 203 192 205 215 216 227 222 213 227 227 224 217 207 220 212 206 204 199 180 178 176 164 168 172 181 163 137 132 133 129 91 91 72
26 21 14 7 5 3 356 1 1 358 356 358 347 342 339 337 326 314 294 257 252 232 242 260 260 252 243 241 203 200 197 194 212 221 212 213 217 228 233 233 235 232 228 229 208 199 203 198 191 184 166 173 173 187 170 162 162 148 147 149 165 148 137
35 29 27 19 5 2 2 358 355 357 350 346 347 344 341 337 331 323 316 308 297 287 276 275 283 281 273 255 226 193 206 210 219 218 214 212 215 219 228 233 238 229 221 226 218 208 204 205 197 180 183 184 190 157 140 150 179 152 149 151 146 142 119
38 38 34 30 21 9 352 353 351 348 344 344 343 336 332 330 329 323 324 325 327 315 306 295 283 285 280 275 251 198 206 218 214 209 213 220 221 222 224 226 231 234 227 224 228 215 205 207 203 186 198 180 134 144 156 156 156 151 136 131 131 107 104
19 19 15 12 18 13 2 5 356 355 354 347 343 335 330 331 332 332 330 331 331 328 326 321 302 287 278 273 270 217 213 222 193 197 202 216 219 223 221 226 236 242 246 242 203 201 212 210 203 179 149 147 156 156 144 141 143 140 131 126 114 112 116
19 17 11 8 9 7 1 0 360 359 354 351 344 339 335 336 337 335 329 320 322 322 322 319 316 312 298 283 277 262 224 221 211 210 211 221 225 224 217 220 219 210 207 193 190 192 182 177 183 180 164 155 145 148 135 137 135 131 122 113 114 122 130